| time (UTC) | temp F | wind direction | speed knots | gust knots | rain 1hr in | rain 24hr in | rain mn in | humidity % | barometer mb |
| 20260506151048 | 52 | 208 | 2.6 | 4.3 | 0.00 | 0.00 | 0.00 | 81 | 1014.3 |
| 20260506150047 | 52 | 266 | 2.6 | 6.1 | 0.00 | 0.00 | 0.00 | 81 | 1014.3 |
| 20260506145045 | 52 | 202 | 1.7 | 1.7 | 0.00 | 0.00 | 0.00 | 83 | 1014.1 |
| 20260506144104 | 52 | 203 | 1.7 | 6.1 | 0.00 | 0.00 | 0.00 | 83 | 1014.2 |
| 20260506143043 | 52 | 229 | 3.5 | 6.1 | 0.00 | 0.00 | 0.00 | 82 | 1014.1 |
| 20260506142142 | 52 | 133 | 0.9 | 3.5 | 0.00 | 0.00 | 0.00 | 84 | 1014.2 |
| 20260506141040 | 52 | 177 | 2.6 | 5.2 | 0.00 | 0.00 | 0.00 | 82 | 1014.0 |
| 20260506140040 | 52 | 338 | 0.9 | 3.5 | 0.00 | 0.00 | 0.00 | 84 | 1013.9 |
| 20260506135037 | 52 | 127 | 2.6 | 3.5 | 0.00 | 0.00 | 0.00 | 85 | 1014.0 |
| 20260506134057 | 51 | 166 | 1.7 | 5.2 | 0.00 | 0.00 | 0.00 | 86 | 1014.1 |
| 20260506133035 | 51 | 150 | 2.6 | 4.3 | 0.00 | 0.00 | 0.00 | 87 | 1014.0 |
| 20260506132114 | 51 | 209 | 2.6 | 6.1 | 0.00 | 0.00 | 0.00 | 88 | 1014.0 |
| 20260506131033 | 50 | 108 | 1.7 | 3.5 | 0.00 | 0.00 | 0.00 | 89 | 1014.0 |
| 20260506130033 | 50 | 87 | 1.7 | 3.5 | 0.00 | 0.00 | 0.00 | 89 | 1013.9 |
| 20260506125030 | 50 | 213 | 1.7 | 4.3 | 0.00 | 0.00 | 0.00 | 90 | 1013.9 |
| 20260506124029 | 50 | 120 | 2.6 | 3.5 | 0.00 | 0.00 | 0.00 | 91 | 1014.0 |
| 20260506123028 | 50 | 201 | 3.5 | 3.5 | 0.00 | 0.00 | 0.00 | 90 | 1013.7 |
| 20260506122027 | 50 | 198 | 7.0 | 8.7 | 0.00 | 0.00 | 0.00 | 90 | 1013.7 |
| 20260506121026 | 50 | 252 | 6.1 | 12.2 | 0.00 | 0.00 | 0.00 | 89 | 1013.6 |
| 20260506120024 | 50 | 283 | 7.0 | 13.0 | 0.00 | 0.00 | 0.00 | 90 | 1013.5 |
| 20260506115044 | 51 | 261 | 4.3 | 9.6 | 0.00 | 0.00 | 0.00 | 91 | 1013.4 |
| 20260506114022 | 51 | 239 | 5.2 | 11.3 | 0.00 | 0.00 | 0.00 | 91 | 1013.2 |
| 20260506113021 | 51 | 196 | 3.5 | 6.1 | 0.00 | 0.00 | 0.00 | 89 | 1013.1 |
| 20260506112020 | 53 | 242 | 7.8 | 17.4 | 0.00 | 0.00 | 0.00 | 87 | 1012.9 |
| 20260506111019 | 54 | 290 | 3.5 | 9.6 | 0.00 | 0.00 | 0.00 | 86 | 1012.6 |
| 20260506110058 | 54 | 290 | 5.2 | 10.4 | 0.00 | 0.00 | 0.00 | 85 | 1012.5 |
| 20260506105016 | 55 | 320 | 4.3 | 9.6 | 0.00 | 0.00 | 0.00 | 84 | 1012.3 |
| 20260506104115 | 55 | 292 | 6.1 | 12.2 | 0.00 | 0.00 | 0.00 | 83 | 1012.3 |
| 20260506103114 | 55 | 302 | 3.5 | 7.8 | 0.00 | 0.00 | 0.00 | 84 | 1012.2 |
| 20260506102112 | 55 | 347 | 2.6 | 6.1 | 0.00 | 0.00 | 0.00 | 84 | 1012.3 |
| 20260506101112 | 55 | 314 | 3.5 | 7.0 | 0.00 | 0.00 | 0.00 | 85 | 1012.2 |
| 20260506100110 | 54 | 4 | 3.5 | 5.2 | 0.00 | 0.00 | 0.00 | 85 | 1012.1 |
| 20260506095110 | 54 | 324 | 3.5 | 5.2 | 0.00 | 0.00 | 0.00 | 87 | 1012.1 |
| 20260506094108 | 54 | 341 | 2.6 | 5.2 | 0.00 | 0.00 | 0.00 | 87 | 1012.0 |
| 20260506093107 | 53 | 157 | 0.9 | 1.7 | 0.00 | 0.00 | 0.00 | 87 | 1012.2 |
| 20260506092105 | 53 | 295 | 0.9 | 2.6 | 0.00 | 0.00 | 0.00 | 87 | 1012.1 |
| 20260506091105 | 53 | 19 | 0.9 | 2.6 | 0.00 | 0.00 | 0.00 | 86 | 1011.9 |
| 20260506090123 | 54 | 15 | 1.7 | 2.6 | 0.00 | 0.00 | 0.00 | 87 | 1011.8 |
| 20260506085103 | 54 | 5 | 1.7 | 3.5 | 0.00 | 0.00 | 0.00 | 86 | 1011.9 |
| 20260506084101 | 54 | 89 | 1.7 | 1.7 | 0.00 | 0.00 | 0.00 | 86 | 1011.8 |
| 20260506083100 | 54 | 65 | 0.9 | 2.6 | 0.00 | 0.00 | 0.00 | 83 | 1011.8 |
| 20260506082120 | 54 | 126 | 1.7 | 2.6 | 0.00 | 0.00 | 0.00 | 84 | 1011.7 |
| 20260506081057 | 54 | 124 | 1.7 | 3.5 | 0.00 | 0.00 | 0.00 | 85 | 1011.8 |
| 20260506073113 | 53 | 70 | 0.9 | 3.5 | 0.00 | 0.00 | 0.00 | 86 | 1011.6 |
| 20260506072112 | 53 | 94 | 1.7 | 3.5 | 0.00 | 0.00 | 0.00 | 86 | 1011.7 |
| 20260506071050 | 53 | 83 | 2.6 | 3.5 | 0.00 | 0.00 | 0.00 | 86 | 1011.7 |
| 20260506062044 | 51 | 120 | 2.6 | 5.2 | 0.00 | 0.00 | 0.00 | 92 | 1011.6 |
| 20260506061044 | 50 | 102 | 1.7 | 4.3 | 0.00 | 0.00 | 0.00 | 93 | 1011.7 |
| 20260506051056 | 49 | 163 | 1.7 | 2.6 | 0.00 | 0.00 | 0.00 | 95 | 1012.0 |
| 20260506045034 | 49 | 129 | 3.5 | 6.1 | 0.00 | 0.00 | 0.00 | 95 | 1011.8 |
| 20260506044032 | 49 | 129 | 3.5 | 6.1 | 0.00 | 0.00 | 0.00 | 95 | 1011.9 |
| 20260506043032 | 49 | 127 | 3.5 | 5.2 | 0.00 | 0.00 | 0.00 | 95 | 1011.8 |
| 20260506042030 | 49 | 154 | 4.3 | 6.1 | 0.00 | 0.00 | 0.00 | 95 | 1011.9 |
| 20260506041029 | 49 | 170 | 2.6 | 4.3 | 0.00 | 0.00 | 0.00 | 96 | 1011.9 |
| 20260506040028 | 49 | 166 | 2.6 | 5.2 | 0.00 | 0.00 | 0.00 | 96 | 1011.9 |
| 20260506035047 | 49 | 125 | 1.7 | 4.3 | 0.00 | 0.00 | 0.00 | 96 | 1012.0 |
| 20260506034026 | 49 | 77 | 0.9 | 3.5 | 0.00 | 0.00 | 0.00 | 96 | 1012.1 |
| 20260506033024 | 49 | 98 | 1.7 | 3.5 | 0.00 | 0.00 | 0.00 | 96 | 1012.2 |
| 20260506032043 | 49 | 350 | 3.5 | 5.2 | 0.00 | 0.00 | 0.00 | 96 | 1012.3 |
| 20260506031022 | 49 | 39 | 2.6 | 3.5 | 0.00 | 0.00 | 0.00 | 95 | 1012.3 |
| 20260506030021 | 49 | 73 | 0.9 | 3.5 | 0.00 | 0.00 | 0.00 | 94 | 1012.4 |
| 20260506025019 | 49 | 164 | 3.5 | 5.2 | 0.00 | 0.00 | 0.00 | 95 | 1012.7 |
| 20260506024039 | 50 | 125 | 2.6 | 6.1 | 0.00 | 0.00 | 0.00 | 93 | 1012.6 |
| 20260506023017 | 50 | 121 | 3.5 | 7.8 | 0.00 | 0.00 | 0.00 | 92 | 1012.7 |
| 20260506022057 | 50 | 156 | 2.6 | 7.0 | 0.00 | 0.00 | 0.00 | 94 | 1012.8 |
| 20260506021116 | 50 | 179 | 2.6 | 5.2 | 0.00 | 0.00 | 0.00 | 96 | 1012.8 |
| 20260506020114 | 50 | 150 | 2.6 | 3.5 | 0.00 | 0.00 | 0.00 | 95 | 1012.9 |
| 20260506015112 | 50 | 147 | 2.6 | 3.5 | 0.00 | 0.00 | 0.00 | 96 | 1013.1 |
| 20260506014111 | 50 | 149 | 2.6 | 2.6 | 0.00 | 0.00 | 0.00 | 95 | 1013.2 |
| 20260506013110 | 50 | 112 | 1.7 | 2.6 | 0.00 | 0.00 | 0.00 | 95 | 1013.4 |
| 20260506012109 | 50 | 105 | 2.6 | 3.5 | 0.00 | 0.00 | 0.00 | 95 | 1013.6 |
| 20260506011107 | 50 | 120 | 2.6 | 3.5 | 0.00 | 0.00 | 0.00 | 95 | 1013.8 |
| 20260506010106 | 50 | 92 | 1.7 | 2.6 | 0.00 | 0.00 | 0.00 | 94 | 1013.8 |
| 20260506005105 | 51 | 139 | 1.7 | 2.6 | 0.00 | 0.00 | 0.00 | 94 | 1013.8 |
| 20260506004105 | 51 | 141 | 2.6 | 4.3 | 0.00 | 0.00 | 0.00 | 94 | 1013.8 |
| 20260506003102 | 51 | 167 | 3.5 | 4.3 | 0.00 | 0.00 | 0.00 | 94 | 1014.0 |
| 20260506002102 | 51 | 166 | 4.3 | 6.1 | 0.00 | 0.00 | 0.00 | 94 | 1014.1 |
| 20260506001120 | 50 | 151 | 3.5 | 4.3 | 0.00 | 0.00 | 0.00 | 95 | 1014.2 |
| 20260506000100 | 50 | 77 | 2.6 | 3.5 | 0.00 | 0.00 | 0.00 | 94 | 1014.2 |
| 20260505235058 | 51 | 106 | 2.6 | 3.5 | 0.00 | 0.00 | 0.00 | 93 | 1014.1 |
| 20260505234058 | 51 | 140 | 0.9 | 2.6 | 0.00 | 0.00 | 0.00 | 93 | 1014.3 |
| 20260505233056 | 51 | 136 | 1.7 | 1.7 | 0.00 | 0.00 | 0.00 | 94 | 1014.3 |
| 20260505232054 | 51 | 126 | 1.7 | 3.5 | 0.00 | 0.00 | 0.00 | 94 | 1014.5 |
| 20260505231053 | 51 | 147 | 2.6 | 4.3 | 0.00 | 0.00 | 0.00 | 94 | 1014.5 |
| 20260505230052 | 50 | 152 | 2.6 | 3.5 | 0.00 | 0.00 | 0.00 | 95 | 1014.8 |
| 20260505225111 | 50 | 144 | 3.5 | 4.3 | 0.00 | 0.00 | 0.00 | 95 | 1014.7 |
| 20260505224051 | 50 | 144 | 1.7 | 3.5 | 0.00 | 0.00 | 0.00 | 95 | 1014.8 |
| 20260505223049 | 50 | 124 | 1.7 | 2.6 | 0.00 | 0.00 | 0.00 | 94 | 1014.7 |
| 20260505222047 | 50 | 89 | 0.9 | 2.6 | 0.00 | 0.00 | 0.00 | 94 | 1014.6 |
| 20260505221046 | 50 | 107 | 1.7 | 2.6 | 0.00 | 0.00 | 0.00 | 94 | 1014.6 |
| 20260505220124 | 50 | 131 | 2.6 | 3.5 | 0.00 | 0.00 | 0.00 | 94 | 1014.8 |
| 20260505215044 | 51 | 129 | 2.6 | 3.5 | 0.00 | 0.00 | 0.00 | 94 | 1014.8 |
| 20260505214042 | 51 | 128 | 2.6 | 3.5 | 0.00 | 0.00 | 0.00 | 94 | 1014.8 |
| 20260505213041 | 51 | 128 | 3.5 | 5.2 | 0.00 | 0.00 | 0.00 | 93 | 1014.9 |
| 20260505212040 | 51 | 116 | 2.6 | 3.5 | 0.00 | 0.00 | 0.00 | 92 | 1015.0 |
| 20260505211039 | 51 | 160 | 3.5 | 4.3 | 0.00 | 0.00 | 0.00 | 92 | 1015.0 |
| 20260505210037 | 51 | 161 | 4.3 | 5.2 | 0.00 | 0.00 | 0.00 | 93 | 1015.0 |
| 20260505205036 | 52 | 108 | 3.5 | 4.3 | 0.00 | 0.00 | 0.00 | 92 | 1015.1 |
| 20260505204035 | 52 | 151 | 4.3 | 5.2 | 0.00 | 0.00 | 0.00 | 91 | 1015.0 |
| 20260505203033 | 52 | 160 | 4.3 | 5.2 | 0.00 | 0.00 | 0.00 | 92 | 1014.9 |
| 20260505202032 | 52 | 136 | 3.5 | 5.2 | 0.00 | 0.00 | 0.00 | 91 | 1014.8 |
| 20260505201031 | 52 | 149 | 3.5 | 5.2 | 0.00 | 0.00 | 0.00 | 91 | 1014.7 |
| 20260505200030 | 53 | 158 | 2.6 | 3.5 | 0.00 | 0.00 | 0.00 | 90 | 1014.6 |
| 20260505195049 | 53 | 71 | 1.7 | 3.5 | 0.00 | 0.00 | 0.00 | 89 | 1014.5 |
| 20260505194028 | 54 | 152 | 2.6 | 3.5 | 0.00 | 0.00 | 0.00 | 88 | 1014.4 |
| 20260505193026 | 54 | 170 | 2.6 | 3.5 | 0.00 | 0.00 | 0.00 | 88 | 1014.4 |
| 20260505192025 | 55 | 180 | 3.5 | 4.3 | 0.00 | 0.00 | 0.00 | 86 | 1014.3 |
| 20260505191024 | 55 | 181 | 2.6 | 3.5 | 0.00 | 0.00 | 0.00 | 86 | 1014.2 |
| 20260505190023 | 55 | 162 | 2.6 | 6.1 | 0.00 | 0.00 | 0.00 | 86 | 1013.9 |
| 20260505185022 | 56 | 163 | 1.7 | 2.6 | 0.00 | 0.00 | 0.00 | 84 | 1013.9 |
| 20260505184020 | 58 | 185 | 2.6 | 3.5 | 0.00 | 0.00 | 0.00 | 80 | 1013.9 |
| 20260505183040 | 58 | 206 | 2.6 | 6.1 | 0.00 | 0.00 | 0.00 | 76 | 1013.8 |
| 20260505182038 | 59 | 173 | 1.7 | 3.5 | 0.00 | 0.00 | 0.00 | 77 | 1013.8 |
| 20260505181016 | 59 | 157 | 1.7 | 3.5 | 0.00 | 0.00 | 0.00 | 75 | 1013.9 |
| 20260505180115 | 59 | 215 | 3.5 | 6.1 | 0.00 | 0.00 | 0.00 | 75 | 1013.9 |
| 20260505175114 | 59 | 162 | 2.6 | 3.5 | 0.00 | 0.00 | 0.00 | 77 | 1014.0 |
| 20260505174113 | 59 | 163 | 1.7 | 3.5 | 0.00 | 0.00 | 0.00 | 78 | 1013.9 |
| 20260505173112 | 58 | 179 | 2.6 | 5.2 | 0.00 | 0.00 | 0.00 | 78 | 1014.0 |
| 20260505172111 | 58 | 152 | 4.3 | 7.8 | 0.00 | 0.00 | 0.00 | 79 | 1013.8 |
| 20260505171109 | 57 | 163 | 4.3 | 6.1 | 0.00 | 0.00 | 0.00 | 82 | 1013.6 |
| 20260505170108 | 56 | 179 | 3.5 | 6.1 | 0.00 | 0.00 | 0.00 | 82 | 1013.7 |
| 20260505165107 | 56 | 149 | 1.7 | 4.3 | 0.00 | 0.00 | 0.00 | 83 | 1013.6 |
| 20260505164146 | 56 | 161 | 2.6 | 4.3 | 0.00 | 0.00 | 0.00 | 82 | 1013.7 |
| 20260505163105 | 56 | 140 | 1.7 | 2.6 | 0.00 | 0.00 | 0.00 | 83 | 1013.8 |
| 20260505162124 | 56 | 112 | 0.9 | 2.6 | 0.00 | 0.00 | 0.00 | 83 | 1013.8 |
| 20260505161102 | 56 | 223 | 0.9 | 2.6 | 0.00 | 0.00 | 0.00 | 83 | 1014.0 |
| 20260505153058 | 56 | 173 | 0.9 | 4.3 | 0.00 | 0.00 | 0.00 | 82 | 1013.9 |
| 20260505152056 | 57 | 244 | 3.5 | 5.2 | 0.00 | 0.00 | 0.00 | 80 | 1013.9 |